Find Starlink 33805

NORAD ID: 63590 Int'l Des: 2025-076 Owner: SPXS Country: US Constellation: starlink operational
LEOCIRCULAR

現在のビュー

3D地球を読み込み中...

About Starlink 33805

Starlink 33805 (NORAD 63590) is a starlink constellation satellite (v2 mini) launched Apr 14, 2025 by SPXS of US. It operates in LEO, CIRCULAR orbit with a mass of 575.00 kg.

次回通過

Passes for default location (London). Set your location on the main map for personalized predictions.

高度履歴

Loading altitude history...

軌道要素

1 63590U 25076X 26264.37504063 .00009686 00000-0 36093-3 0 9994
2 63590 43.0001 296.9230 0001786 273.8483 86.2164 15.27588996 81759
Epoch: Sep 21, 2026 • Age: 28 hours

現在のステータス

高度 487.4 km
遠地点 / 近地点 N/A
速度 7.62 km/s
衛星直下点 -22.61°S, 66.05°E
打ち上げ日 Apr 14, 2025
運用期間 1.4 years
タイプ internet

技術仕様

分類 Payload
質量 575.00 kg
乾燥質量 530.00 kg
長さ 0.30 m
スパン 29.00 m
形状 ? Box + pan
製造者 SPXS
バスタイプ Starlink V2MO
フェーズステータス In Orbit
所有者/国 SPXS/US

Most Searched